SERIAL,TIME,MODEL,SN(OPTODE),OXYGEN,SATURATION,TEMPERATURE,CALPHASE,TCPHASE,C1RPH,C2RPH,C1AMP,C2AMP,RAWTEMP,CHECK
2,1314910939,4330,355,198.6609954833984400,60.7797203063964840,13.2622604370117190,34.5401496887207000,36.5632400512695300,39.9378395080566400,3.3745961189270020,750.0952758789062000,674.7407836914062000,413.4079895019531000,26253
2,1314914536,4330,355,198.0402984619140600,60.5703010559082000,13.2477903366088870,34.5850906372070300,36.6071510314941400,39.9778289794921900,3.3706820011138916,751.0452270507812000,674.8466796875000000,413.8728027343750000,47515
2,1314918136,4330,355,197.3437957763672000,60.3330383300781250,13.2297697067260740,34.6369400024414060,36.6577987670898440,40.0360298156738300,3.3782269954681396,752.1348266601562000,675.0131225585938000,414.4519042968750000,1605
2,1314921736,4330,355,197.3202056884765600,60.3179817199707000,13.2239303588867190,34.6413002014160160,36.6620597839355500,40.0325508117675800,3.3704829216003420,752.2252807617188000,674.9882202148438000,414.6395874023437500,6775
2,1314925336,4330,355,197.5554962158203000,60.3891105651855500,13.2233400344848630,34.6271705627441400,36.6482505798339840,40.0124397277832000,3.3641819953918457,751.8438110351562000,675.0598754882812000,414.6582946777344000,48313
2,1314928936,4330,355,198.3744964599609400,60.6693992614746100,13.2454996109008790,34.5657081604003900,36.5882110595703100,39.9462089538574200,3.3580019474029540,750.3176269531250000,674.8541259765625000,413.9465026855469000,11815
2,1314932536,4330,355,196.4080047607422000,60.0685501098632800,13.2459001541137700,34.6863594055175800,36.7060890197753900,40.0631408691406250,3.3570559024810790,753.3898925781250000,674.8651733398438000,413.9334106445312500,9951
2,1314936136,4330,355,196.1369018554687500,59.9750709533691400,13.2379999160766600,34.7071113586425800,36.7263603210449200,40.0667610168457000,3.3404009342193604,753.9691772460938000,674.8828125000000000,414.1874084472656000,42032
2,1314939736,4330,355,199.0373992919922000,60.8920593261718750,13.2601995468139650,34.5186080932617200,36.5421905517578100,39.8930816650390600,3.3508911132812500,749.1909790039062000,674.9083862304688000,413.4739990234375000,65165
2,1314943336,4330,355,196.8197021484375000,60.2131500244140600,13.2598600387573240,34.6542816162109400,36.6747398376464840,40.0190315246582000,3.3442840576171875,752.7630004882812000,674.8474731445312000,413.4851074218750000,40546
2,1314946936,4330,355,196.2743988037109400,60.0463600158691400,13.2598896026611330,34.6874618530273440,36.7071609497070300,40.0572814941406250,3.3501210212707520,753.6220703125000000,674.8275756835938000,413.4840087890625000,35777
2,1314950536,4330,355,196.6116027832031200,60.1514511108398440,13.2613201141357420,34.6659393310546900,36.6861305236816400,40.0365905761718750,3.3504641056060790,753.0114746093750000,674.7985229492188000,413.4382019042969000,45335
2,1314954136,4330,355,195.1578979492187500,59.7078399658203100,13.2621698379516600,34.7556991577148440,36.7738304138183600,40.1311187744140600,3.3572919368743896,755.1732177734375000,674.7694702148438000,413.4106140136719000,27178
2,1314957736,4330,355,194.5726013183593800,59.5290107727050800,13.2623596191406250,34.7922401428222660,36.8095207214355500,40.1581382751464840,3.3486180305480957,756.1859741210938000,674.7108154296875000,413.4046936035156000,16200
2,1314961336,4330,355,197.7339935302734400,60.4481391906738300,13.2266502380371100,34.6146507263183600,36.6360206604003900,39.9750099182128900,3.3389821052551270,751.2396850585938000,674.8695068359375000,414.5521850585937500,47815
2,1314964936,4330,355,196.9750061035156200,60.2155418395996100,13.2262401580810550,34.6612091064453100,36.6815109252929700,40.0279197692871100,3.3464128971099854,752.5535888671875000,674.8261718750000000,414.5651855468750000,14072
2,1314968536,4330,355,195.8074951171875000,59.8592796325683600,13.2267198562622070,34.7334289550781250,36.7520713806152340,40.1034889221191400,3.3514180183410645,754.2233886718750000,674.8178710937500000,414.5498046875000000,60115
2,1314972136,4330,355,197.4889984130859400,60.3693695068359400,13.2237796783447270,34.6310005187988300,36.6520004272460940,40.0042610168457000,3.3522570133209230,751.5634765625000000,674.8682250976562000,414.6441955566406000,55653
2,1314975736,4330,355,198.4768981933593800,60.6713485717773440,13.2237901687622070,34.5706710815429700,36.5930595397949200,39.9506187438964840,3.3575670719146730,749.9439697265625000,674.8673706054688000,414.6440124511719000,5811
2,1314979336,4330,355,196.6504974365234400,60.1135902404785160,13.2241897583007810,34.6820106506347660,36.7018394470214840,40.0407409667968750,3.3389050960540770,752.9927978515625000,674.7678222656250000,414.6312866210937500,33803
2,1314982936,4330,355,198.7209014892578000,60.7980117797851560,13.2622404098510740,34.5367202758789060,36.5598793029785160,39.9056205749511700,3.3457410335540770,749.2103271484375000,674.6010742187500000,413.4083862304687500,13482
2,1314986536,4330,355,197.0428924560547000,60.2840805053710940,13.2618103027343750,34.6391906738281250,36.6599998474121100,40.0042610168457000,3.3442609310150146,751.9951171875000000,674.6538696289062000,413.4223022460937500,27037
2,1314990136,4330,355,195.4105072021484400,59.7846717834472660,13.2618303298950200,34.7397689819335940,36.7582588195800800,40.1041908264160160,3.3459239006042480,754.5665893554688000,674.5819702148438000,413.4216918945312500,2010
2,1314993736,4330,355,196.8367004394531200,60.2234802246093750,13.2636804580688480,34.6510810852050800,36.6716194152832000,40.0144805908203100,3.3428649902343750,752.0554809570312000,674.5283813476562000,413.3622131347656000,15797
2,1314997336,4330,355,195.3441925048828000,59.7668190002441400,13.2636604309082030,34.7430496215820300,36.7614707946777340,40.1130218505859400,3.3515470027923584,754.5452270507812000,674.5252075195312000,413.3630065917969000,13050
2,1315000936,4330,355,194.3345031738281200,59.4371795654296900,13.2480096817016600,34.8142395019531250,36.8310203552246100,40.1822090148925800,3.3511810302734375,756.3790283203125000,674.7183837890625000,413.8659057617187500,25863
2,1315004536,4330,355,197.6401977539062500,60.4445381164550800,13.2452898025512700,34.6108016967773440,36.6322593688964840,39.9729499816894500,3.3406829833984375,751.0250244140625000,674.6687011718750000,413.9533996582031000,18353
2,1315008136,4330,355,196.6602020263672000,60.1693687438964840,13.2635698318481450,34.6623001098632800,36.6825790405273440,40.0249214172363300,3.3423390388488770,752.3068237304688000,674.4727172851562000,413.3658142089844000,16807
2,1315011736,4330,355,194.8157043457031200,59.6046981811523440,13.2633304595947270,34.7765083312988300,36.7941589355468750,40.1437797546386700,3.3496251106262207,755.2227783203125000,674.4600830078125000,413.3735046386719000,6193
2,1315015336,4330,355,194.6264953613281200,59.5474586486816400,13.2638301849365230,34.7875709533691400,36.8049697875976560,40.1314392089843750,3.3264689445495605,755.5961914062500000,674.4066772460938000,413.3575134277344000,54821
2,1315018936,4330,355,195.2048950195312500,59.7176513671875000,13.2587299346923830,34.7542190551757800,36.7723808288574200,40.0961608886718750,3.3237841129302980,754.7681884765625000,674.4866943359375000,413.5212097167969000,64721
2,1315022536,4330,355,194.7333068847656200,59.5547294616699200,13.2446804046630860,34.7907485961914060,36.8080711364746100,40.1570587158203100,3.3489840030670166,755.5950927734375000,674.5861816406250000,413.9729003906250000,24426
2,1315026136,4330,355,198.2980041503906200,60.6439208984375000,13.2439699172973630,34.5711898803710940,36.5935592651367200,39.9317283630371100,3.3381729125976562,749.8261718750000000,674.5681152343750000,413.9956970214844000,3306
2,1315029736,4330,355,195.4138946533203000,59.7621917724609400,13.2441797256469730,34.7487716674804700,36.7670593261718750,40.1072502136230500,3.3401949405670166,754.5377197265625000,674.5750732421875000,413.9888916015625000,24035
2,1315033336,4330,355,197.0240020751953000,60.2552795410156250,13.2446804046630860,34.6488189697265600,36.6693992614746100,40.0158805847168000,3.3464810848236084,751.7481079101562000,674.5020141601562000,413.9729003906250000,63940
2,1315036936,4330,355,196.5547027587890600,60.1115913391113300,13.2445697784423830,34.6783409118652340,36.6982498168945300,40.0325012207031250,3.3342509269714355,752.6295166015625000,674.4904174804688000,413.9764099121094000,38717
2,1315040536,4330,355,196.4519958496093800,60.0812301635742200,13.2453203201293950,34.6836318969726560,36.7034111022949200,40.0346984863281250,3.3312840461730957,752.6738281250000000,674.4658203125000000,413.9523010253906000,17664
2,1315044136,4330,355,196.6490020751953000,60.1404113769531250,13.2445201873779300,34.6723289489746100,36.6923789978027340,40.0356292724609400,3.3432540893554688,752.3682250976562000,674.4918823242188000,413.9778137207031000,52809
2,1315047736,4330,355,196.5059051513672000,60.0960998535156250,13.2441396713256840,34.6813011169433600,36.7011413574218750,40.0467987060546900,3.3456571102142334,752.4923095703125000,674.4741821289062000,413.9902954101562500,50132
2,1315051336,4330,355,194.4324035644531200,59.4617004394531250,13.2439298629760740,34.8102798461914060,36.8271598815918000,40.1621704101562500,3.3350141048431396,755.9641113281250000,674.4566040039062000,413.9970092773437500,23208
2,1315054936,4330,355,197.9918975830078000,60.5506706237793000,13.2442302703857420,34.5897789001464840,36.6117210388183600,39.9470214843750000,3.3352971076965330,750.1947021484375000,674.4223022460938000,413.9873046875000000,48948
2,1315058536,4330,355,197.4761047363281200,60.3944091796875000,13.2453403472900390,34.6210289001464840,36.6422500610351560,39.9900093078613300,3.3477549552917480,750.8720703125000000,674.4165039062500000,413.9516906738281000,27753
2,1315062136,4330,355,197.3146057128906200,60.3734512329101560,13.2664804458618160,34.6206207275390600,36.6418495178222660,39.9789314270019500,3.3370740413665770,750.8820190429688000,674.2059936523438000,413.2723083496094000,22580
2,1315065736,4330,355,195.1558990478515600,59.7124786376953100,13.2661104202270500,34.7535781860351560,36.7717590332031250,40.1159706115722660,3.3442080020904540,754.3093261718750000,674.1317749023438000,413.2842102050781000,31497
2,1315069336,4330,355,194.9407958984375000,59.6275100708007800,13.2517204284667970,34.7743110656738300,36.7920112609863300,40.1424102783203100,3.3504030704498290,754.8740844726562000,674.3444213867188000,413.7466125488281000,55534
2,1315072936,4330,355,194.8509979248047000,59.5925903320312500,13.2461004257202150,34.7826614379882800,36.8001708984375000,40.1390190124511700,3.3388519287109375,754.9995727539062000,674.3322753906250000,413.9270019531250000,29742
2,1315076536,4330,355,194.9084930419922000,59.6100196838378900,13.2459602355957030,34.7790184020996100,36.7966194152832000,40.1341400146484400,3.3375239372253420,754.9475097656250000,674.3159790039062000,413.9317016601562500,21142
2,1315080136,4330,355,197.6793060302734400,60.4563102722168000,13.2451601028442380,34.6087112426757800,36.6302185058593750,39.9762382507324200,3.3460240364074707,750.3712158203125000,674.2921752929688000,413.9573059082031000,49010
2,1315083736,4330,355,195.2931060791015600,59.7267112731933600,13.2452802658081050,34.7556304931640600,36.7737693786621100,40.1080284118652340,3.3342669010162354,754.3768920898438000,674.2546997070312000,413.9536132812500000,6984
2,1315087336,4330,355,194.7014007568359400,59.5466995239257800,13.2460098266601560,34.7919883728027340,36.8092918395996100,40.1384887695312500,3.3292009830474854,755.3375244140625000,674.3516845703125000,413.9299926757812500,43008
2,1315090936,4330,355,196.0841979980468800,59.9690818786621100,13.2455997467041020,34.7064208984375000,36.7256889343261700,40.0578918457031250,3.3322069644927980,752.9172973632812000,674.2183837890625000,413.9431152343750000,12472
2,1315094536,4330,355,196.4194946289062500,60.0697784423828100,13.2441902160644530,34.6864013671875000,36.7061195373535160,40.0318908691406250,3.3257679939270020,752.4276123046875000,674.2500000000000000,413.9884033203125000,39580
2,1315098136,4330,355,194.6672973632812500,59.5353507995605500,13.2453098297119140,34.7947311401367200,36.8119583129882800,40.1432609558105500,3.3313059806823730,755.3679809570312000,674.2498779296875000,413.9526977539062500,30366
2,1315101736,4330,355,194.2223052978515600,59.3997001647949200,13.2456502914428710,34.8220901489257800,36.8386917114257800,40.1783294677734400,3.3396379947662354,755.9146728515625000,674.2072753906250000,413.9418029785156000,50398
2,1315105336,4330,355,196.9924011230468800,60.2476310729980500,13.2461795806884770,34.6503486633300800,36.6708984375000000,40.0041503906250000,3.3332519531250000,751.4750976562500000,674.2573852539062000,413.9247131347656000,28935
2,1315108936,4330,355,195.3892974853515600,59.7584609985351560,13.2470197677612300,34.7483901977539060,36.7666893005371100,40.1105804443359400,3.3438949584960938,753.9713134765625000,674.2471923828125000,413.8974914550781000,55083
2,1315112536,4330,355,196.2285003662109400,60.0150909423828100,13.2469797134399410,34.6967201232910160,36.7162094116210940,40.0537414550781250,3.3375320434570312,752.6834106445312000,674.1967163085938000,413.8989868164062500,63456
2,1315116136,4330,355,196.4774017333984400,60.0905303955078100,13.2465000152587890,34.6817283630371100,36.7015609741210940,40.0362396240234400,3.3346788883209230,752.2233886718750000,674.1593017578125000,413.9142150878906000,19072
2,1315119736,4330,355,196.7369995117187500,60.1711311340332000,13.2473897933959960,34.6657409667968750,36.6859397888183600,40.0278892517089840,3.3419489860534670,751.6738281250000000,674.1821899414062000,413.8858032226562500,3298
2,1315123336,4330,355,194.8563995361328000,59.5955696105957000,13.2470998764038090,34.7817115783691400,36.7992401123046900,40.1349792480468750,3.3357388973236084,754.6995239257812000,674.1367187500000000,413.8948974609375000,34820
2,1315126936,4330,355,195.7655029296875000,59.8782196044921900,13.2505397796630860,34.7235107421875000,36.7423782348632800,40.0727691650390600,3.3303909301757812,753.3674926757812000,674.1336059570312000,413.7843017578125000,37095
2,1315130536,4330,355,194.9524993896484400,59.6266098022460940,13.2483301162719730,34.7752914428710940,36.7929687500000000,40.1268615722656250,3.3338930606842040,754.6024169921875000,674.1782226562500000,413.8554992675781000,59782
2,1315134136,4330,355,195.9723968505859400,59.9367103576660160,13.2469501495361330,34.7126502990722660,36.7317695617675800,40.0745086669921900,3.3427429199218750,752.8903198242188000,674.1401977539062000,413.8999023437500000,1966
2,1315137736,4330,355,196.7597045898437500,60.1777801513671900,13.2471704483032230,34.6643295288085940,36.6845588684082000,40.0270805358886700,3.3425290584564210,751.5910034179688000,674.1334228515625000,413.8927917480469000,23667
2,1315141336,4330,355,195.0316009521484400,59.6479415893554700,13.2461900711059570,34.7716789245605500,36.7894401550293000,40.1205902099609400,3.3311541080474854,754.4281005859375000,674.1870117187500000,413.9244079589844000,22022
2,1315144936,4330,355,196.4665069580078000,60.0861511230468750,13.2457103729248050,34.6831092834472660,36.7029113769531250,40.0456390380859400,3.3427278995513916,752.0371093750000000,674.1154785156250000,413.9396972656250000,45510
2,1315148536,4330,355,197.9963073730468800,60.5611610412597660,13.2510099411010740,34.5862693786621100,36.6082992553710940,39.9441719055175800,3.3358690738677980,749.5781250000000000,674.0983886718750000,413.7694091796875000,29164
2,1315152136,4330,355,197.8773956298828000,60.5207710266113300,13.2480096817016600,34.5949897766113300,36.6168098449707000,39.9534111022949200,3.3366010189056396,749.7308959960938000,674.0490722656250000,413.8656921386719000,50981
2,1315155736,4330,355,195.4853973388672000,59.8103599548339840,13.2638998031616210,34.7348403930664060,36.7534484863281250,40.0862388610839840,3.3327939510345460,753.4578857421875000,673.9083862304688000,413.3551025390625000,9465
2,1315159336,4330,355,193.9243011474609400,59.3334503173828100,13.2644701004028320,34.8309402465820300,36.8473396301269500,40.1884193420410160,3.3410799503326416,755.8474731445312000,673.8864135742188000,413.3369140625000000,26866
2,1315162936,4330,355,194.2761993408203000,59.4407691955566400,13.2641897201538090,34.8097305297851560,36.8266105651855500,40.1599082946777340,3.3332979679107666,755.3364257812500000,673.9207763671875000,413.3460083007812500,19291
2,1315166536,4330,355,196.6257934570312500,60.1610412597656250,13.2652301788330080,34.6632499694824200,36.6834983825683600,40.0229911804199200,3.3394930362701416,751.5421142578125000,673.9160156250000000,413.3125915527344000,41544
2,1315170136,4330,355,193.9208984375000000,59.3336486816406250,13.2654199600219730,34.8308296203613300,36.8472290039062500,40.1825904846191400,3.3353579044342040,755.8624877929688000,673.8775024414062000,413.3063964843750000,38265
2,1315173736,4330,355,193.7931060791015600,59.2769317626953100,13.2520799636840820,34.8459701538085940,36.8620185852050800,40.2009696960449200,3.3389511108398438,756.0886230468750000,673.8988037109375000,413.7348937988281000,57970
2,1315177336,4330,355,194.7024993896484400,59.5461196899414060,13.2452898025512700,34.7925987243652340,36.8098793029785160,40.1444396972656250,3.3345570564270020,754.8889770507812000,674.0449829101562000,413.9533996582031000,41259
2,1315180936,4330,355,193.9474029541015600,59.3149604797363300,13.2451095581054690,34.8393402099609400,36.8555488586425800,40.1886291503906250,3.3330841064453125,756.0106201171875000,673.9984741210938000,413.9590148925781000,4756
2,1315184536,4330,355,195.5549011230468800,59.8069496154785160,13.2453899383544920,34.7397117614746100,36.7582092285156250,40.0868988037109400,3.3286900520324707,753.5112915039062000,673.9946899414062000,413.9497985839844000,51505
2,1315188136,4330,355,194.8869934082031200,59.6021499633789060,13.2449998855590820,34.7812881469726560,36.7988281250000000,40.1372413635253900,3.3384089469909670,754.4948730468750000,674.0115966796875000,413.9624938964844000,219
2,1315191736,4330,355,193.5007934570312500,59.1782989501953100,13.2450399398803710,34.8677711486816400,36.8833198547363300,40.2168083190918000,3.3334879875183105,756.6956176757812000,673.9647827148438000,413.9612121582031000,4367
2,1315195336,4330,355,196.2319030761718800,60.0135002136230500,13.2450199127197270,34.6975517272949200,36.7170181274414060,40.0508613586425800,3.3338389396667480,752.1524047851562000,673.9240722656250000,413.9620056152344000,65242
2,1315198936,4330,355,196.0337066650390600,59.9525299072265600,13.2447500228881840,34.7101593017578100,36.7293281555175800,40.0501289367675800,3.3207929134368896,752.6439208984375000,673.9893188476562000,413.9707031250000000,40850
2,1315202536,4330,355,195.9163055419922000,59.9161987304687500,13.2444400787353520,34.7174415588378900,36.7364501953125000,40.0696601867675800,3.3332059383392334,752.8480834960938000,673.9669189453125000,413.9805908203125000,401
2,1315206136,4330,355,197.5886993408203000,60.4293098449707000,13.2456798553466800,34.6140785217285160,36.6354713439941400,39.9658203125000000,3.3303530216217040,750.0833740234375000,673.9266967773438000,413.9407043457031000,31108
2,1315209736,4330,355,196.8404998779297000,60.2001914978027340,13.2454595565795900,34.6602897644043000,36.6806106567382800,40.0106697082519500,3.3300549983978270,751.2885742187500000,673.8400878906250000,413.9478149414062500,4473
2,1315213336,4330,355,195.7677001953125000,59.8975181579589840,13.2644996643066400,34.7163887023925800,36.7354202270507800,40.0765495300293000,3.3411331176757812,752.6331787109375000,673.7266845703125000,413.3357849121094000,13700
2,1315216936,4330,355,194.8007965087890600,59.6028518676757800,13.2653703689575200,34.7758407592773440,36.7934989929199200,40.1383705139160160,3.3448638916015625,754.1422119140625000,673.6915283203125000,413.3078002929687500,50270
2,1315220536,4330,355,195.1797943115234400,59.6933097839355500,13.2462196350097660,34.7624511718750000,36.7804298400878900,40.1166687011718750,3.3362429141998290,753.8825073242188000,673.8909301757812000,413.9233093261719000,54798
2,1315224136,4330,355,197.2299041748047000,60.3196983337402340,13.2457504272460940,34.6360511779785160,36.6569290161132800,39.9971008300781250,3.3401720523834230,750.4089965820312000,673.8104858398438000,413.9382934570312500,8513
2,1315227736,4330,355,197.1699066162109400,60.3013496398925800,13.2457504272460940,34.6391716003418000,36.6599807739257800,40.0042304992675800,3.3442459106445312,750.5393066406250000,673.8242187500000000,413.9383850097656000,21189
2,1315231336,4330,355,194.8179016113281200,59.5817108154296900,13.2455196380615230,34.7850189208984400,36.8024711608886700,40.1425018310546900,3.3400270938873290,754.3046264648438000,673.8040161132812000,413.9457092285156000,2591
2,1315234936,4330,355,195.6138000488281200,59.8252410888671900,13.2456102371215820,34.7358818054199200,36.7544593811035160,40.1010017395019500,3.3465349674224854,753.0042724609375000,673.7769165039062000,413.9431152343750000,32498
2,1315238536,4330,355,193.9586944580078000,59.3190498352050800,13.2456197738647460,34.8390197753906250,36.8552284240722660,40.1745796203613300,3.3193440437316895,755.7847900390625000,673.8153076171875000,413.9426879882812500,49397
2,1315242136,4330,355,195.9131927490234400,59.9171981811523440,13.2459096908569340,34.7172889709472660,36.7363090515136700,40.0653800964355500,3.3290789127349854,752.4514160156250000,673.7659912109375000,413.9331970214844000,42838
2,1315245736,4330,355,193.9553070068359400,59.3187408447265600,13.2461500167846680,34.8389205932617200,36.8551292419433600,40.1825408935546900,3.3274080753326416,755.7130126953125000,673.7260131835938000,413.9256896972656000,51380
2,1315249336,4330,355,193.3038024902343800,59.1191215515136700,13.2458696365356450,34.8794898986816400,36.8947792053222660,40.2243690490722660,3.3295900821685790,756.7542724609375000,673.7250976562500000,413.9345092773437500,40479
2,1315252936,4330,355,195.9808044433593800,59.9382019042968750,13.2461700439453120,34.7124099731445300,36.7315406799316400,40.0582008361816400,3.3266599178314210,752.4183959960938000,673.7537841796875000,413.9249877929687500,34816
2,1315256536,4330,355,195.5137939453125000,59.7877998352050800,13.2404603958129880,34.7446289062500000,36.7630081176757800,40.1026496887207000,3.3396379947662354,753.0653076171875000,673.7380981445312000,414.1083068847656000,25343
2,1315260136,4330,355,194.6020965576172000,59.5024604797363300,13.2355499267578120,34.8035392761230500,36.8205604553222660,40.1541099548339840,3.3335490226745605,754.6873168945312000,673.8181152343750000,414.2662048339844000,32558
2,1315263736,4330,355,197.7324066162109400,60.4623985290527340,13.2376098632812500,34.6093292236328100,36.6308288574218750,39.9636383056640600,3.3328089714050293,749.6320800781250000,673.7470703125000000,414.1997985839844000,60140
2,1315267336,4330,355,196.9425048828125000,60.2331809997558600,13.2468099594116210,34.6524810791015600,36.6729888916015600,40.0072212219238300,3.3342289924621580,750.6774291992188000,673.6328735351562000,413.9045104980469000,33929
2,1315270936,4330,355,198.4725952148437500,60.7202301025390600,13.2608804702758790,34.5520286560058600,36.5748405456543000,39.9044990539550800,3.3296511173248290,748.1473999023438000,673.6130981445312000,413.4520874023437500,23921
2,1315274536,4330,355,197.2973022460937500,60.3597602844238300,13.2602300643920900,34.6242713928222660,36.6454200744628900,39.9781608581543000,3.3327410221099854,750.1821899414062000,673.6619262695312000,413.4732055664062500,55287
2,1315278136,4330,355,195.8246002197265600,59.9105682373046900,13.2612199783325200,34.7145881652832000,36.7336692810058600,40.0740089416503900,3.3403398990631104,752.4575195312500000,673.7014160156250000,413.4414062500000000,52659